Content
SEND FEEDBACK

Daily
Averages
Monthly
Summary
United States of America

MARBLEHEAD, OHIO


Home > North America > United States > Ohio
Elevation: 630 feet     Latitude: 41 30N     Longitude: 082 42W

WEATHER
 
SELECT A DAY
Number of Records: 180,263;   Date Range: 10/8/98 - 7/23/14
 
SHARE

PRINT THIS DATA

[ ← Previous Day ]
WEATHER ALMANAC - JANUARY 21, 2013
[ Next Day → ]
[ °C ]   °F
Weather ElementAverageHighLow
Temperature16.5 °F21.2 °F (11:00 am)10.4 °F (10:05 pm)
Dewpoint6.5 °F12.2 °F (10:16 am)-0.9 °F (10:53 pm)
Humidity65.1 %79 % (7:40 pm)48 % (2:53 pm)
Barometer30.05 in30.14 in (1:53 am)29.98 in (3:25 pm)
Wind Speed14.9 mph21.9 mph (2:53 pm)
Wind Gust32.2 mph (3:25 pm)
Weather ElementAverage
Visibility6.5 mi
Wind DirectionWNW (275.8 °)

Weather ElementTotal
Precipitation---
Heating Degree Days49.2 (Base 65)
Averaged from 48 records on January 21, 2013
WEATHER CONDITIONS BREAKOUT
WIND DIRECTION BREAKOUT
WEATHER BY HOUR - JANUARY 21, 2013
[ °C ]   °F
Local TimeTemperatureDewpointHumidityBarometerVisibilityWind DirectionWind SpeedGust SpeedPrecipitationEventsConditions
1:53 AM19.9 °F8.1 °F60 %30.14 in10.0 miWest (270°)9.2 mphOvercast
2:53 AM19.9 °F8.1 °F60 %30.14 in10.0 miWest (270°)8.1 mphOvercast
3:53 AM19.0 °F8.1 °F62 %30.12 in10.0 miWest (280°)11.5 mphOvercast
4:53 AM19.0 °F8.1 °F62 %30.10 in10.0 miWest (260°)10.4 mphOvercast
5:53 AM19.0 °F7.0 °F59 %30.09 in10.0 miWest (270°)9.2 mphOvercast
6:53 AM19.0 °F7.0 °F59 %30.08 in10.0 miWSW (250°)9.2 mphOvercast
7:53 AM19.0 °F8.1 °F62 %30.06 in10.0 miWSW (250°)9.2 mphOvercast
8:53 AM19.9 °F9.0 °F62 %30.06 in10.0 miSW (230°)11.5 mphOvercast
9:53 AM19.9 °F9.0 °F62 %30.04 in10.0 miWest (270°)15.0 mphOvercast
10:16 AM19.4 °F12.2 °F74 %30.00 in2.5 miWest (270°)12.7 mph0.00 inSnowLight Snow
10:26 AM19.4 °F12.2 °F74 %30.00 in1.5 miWest (280°)11.5 mph0.00 inSnowLight Snow
10:47 AM19.4 °F12.2 °F74 %30.00 in3.0 miWest (260°)10.4 mph0.00 inSnowLight Snow
10:53 AM21.0 °F12.0 °F68 %30.03 in8.0 miWest (260°)11.5 mph0.00 inOvercast
11:00 AM21.2 °F10.4 °F63 %30.00 in10.0 miWest (260°)15.0 mphOvercast
11:09 AM21.2 °F6.8 °F54 %30.00 in10.0 miWest (270°)18.4 mph24.2 mphOvercast
11:53 AM21.0 °F6.1 °F53 %30.01 in10.0 miWest (280°)13.8 mph23.0 mphMostly Cloudy
12:53 PM21.0 °F5.0 °F50 %29.99 in10.0 miWest (270°)19.6 mph29.9 mph0.00 inOvercast
1:53 PM21.0 °F6.1 °F53 %29.99 in8.0 miWest (270°)15.0 mph27.6 mph0.00 inSnowLight Snow
2:53 PM19.9 °F3.0 °F48 %30.00 in10.0 miWest (280°)21.9 mph31.1 mph0.00 inMostly Cloudy
3:25 PM19.4 °F12.2 °F74 %29.98 in1.8 miWNW (300°)18.4 mph32.2 mph0.00 inSnowLight Snow
3:32 PM17.6 °F10.4 °F73 %29.98 in0.8 miWNW (290°)18.4 mph26.5 mph0.00 inSnowLight Snow
3:53 PM17.1 °F8.1 °F68 %30.03 in3.0 miWest (270°)17.3 mph24.2 mph0.00 inSnowLight Snow
4:39 PM17.6 °F5.0 °F58 %30.00 in10.0 miWest (280°)15.0 mph26.5 mph0.00 inScattered Clouds
4:53 PM17.1 °F6.1 °F62 %30.05 in10.0 miWest (280°)13.8 mph24.2 mph0.00 inScattered Clouds
5:10 PM15.8 °F6.8 °F68 %30.01 in2.5 miWest (280°)15.0 mph25.3 mph0.00 inSnowLight Snow
5:18 PM15.8 °F5.0 °F62 %30.01 in9.0 miWest (280°)18.4 mph27.6 mph0.00 inScattered Clouds
5:53 PM16.0 °F7.0 °F68 %30.07 in3.0 miWest (280°)16.1 mph28.8 mph0.00 inSnowLight Snow
5:56 PM15.8 °F8.6 °F73 %30.03 in1.8 miWest (270°)13.8 mph0.00 inSnowLight Snow
6:10 PM15.8 °F6.8 °F68 %30.03 in3.0 miWest (280°)11.5 mph23.0 mph0.00 inSnowLight Snow
6:43 PM15.8 °F6.8 °F68 %30.04 in2.5 miWest (280°)21.9 mph26.5 mph0.00 inSnowLight Snow
6:51 PM14.0 °F6.8 °F73 %30.04 in1.0 miWNW (290°)16.1 mph28.8 mph0.00 inSnowLight Snow
6:53 PM14.0 °F7.0 °F74 %30.08 in1.2 miWNW (290°)16.1 mph28.8 mph0.00 inSnowLight Snow
6:58 PM14.0 °F6.8 °F73 %30.04 in3.0 miWNW (290°)13.8 mph25.3 mph0.00 inSnowLight Snow
7:13 PM15.8 °F3.2 °F58 %30.04 in10.0 miWest (280°)13.8 mph26.5 mph0.00 inOvercast
7:33 PM14.0 °F6.8 °F73 %30.05 in2.0 miWest (280°)18.4 mph27.6 mph0.00 inSnowLight Snow
7:40 PM14.0 °F8.6 °F79 %30.05 in1.5 miWest (280°)15.0 mph26.5 mph0.00 inSnowLight Snow
7:44 PM14.0 °F6.8 °F73 %30.05 in2.0 miWest (280°)11.5 mph0.00 inSnowLight Snow
7:53 PM14.0 °F6.1 °F71 %30.09 in9.0 miWest (280°)15.0 mph21.9 mph0.00 inOvercast
8:36 PM12.2 °F6.8 °F79 %30.06 in4.0 miWest (280°)15.0 mph21.9 mph0.00 inSnowLight Snow
8:53 PM12.9 °F3.9 °F67 %30.11 in4.0 miWest (280°)17.3 mph24.2 mph0.00 inSnowLight Snow
9:01 PM12.2 °F5.0 °F73 %30.07 in1.8 miWNW (290°)16.1 mph24.2 mph0.00 inSnowLight Snow
9:06 PM12.2 °F3.2 °F67 %30.07 in3.0 miWNW (290°)18.4 mph24.2 mph0.00 inSnowLight Snow
9:25 PM12.2 °F1.4 °F62 %30.08 in9.0 miWNW (290°)20.7 mph29.9 mph0.00 inSnowLight Snow
9:53 PM12.0 °F0.0 °F59 %30.12 in10.0 miWest (280°)18.4 mph26.5 mph0.00 inMostly Cloudy
10:05 PM10.4 °F-0.4 °F62 %30.08 in10.0 miWest (280°)15.0 mph27.6 mphMostly Cloudy
10:15 PM10.4 °F-0.4 °F62 %30.08 in10.0 miWNW (290°)18.4 mph25.3 mphScattered Clouds
10:53 PM10.9 °F-0.9 °F59 %30.13 in9.0 miWest (280°)16.1 mph26.5 mphMostly Cloudy
11:53 PM10.9 °F-0.9 °F59 %30.14 in10.0 miWest (270°)17.3 mph25.3 mph0.00 inOvercast
Hourly data recorded from KLPR, located miles away from Marblehead, Ohio







STORIES FROM OUR PARTNERS